Location: Asheville, NC
(35.6000°N, 82.5500°W)
Time: 11:03:39
(UTC-04:00)

Vanguard 1 - Pass Details

Date: 12 February 2018
Orbit: 650 x 3833 km, 34.3° (Epoch: 24 May)

Event Time Altitude Azimuth Distance (km) Brightness Sun altitude
Rises 22:59:37 0° 273° (W) 2,952 - -57.6°
Reaches altitude 10° 23:02:03 10° 260° (W) 2,082 - -58.0°
Maximum altitude 23:05:52 26° 202° (SSW) 1,443 - -58.6°
Drops below altitude 10° 23:10:46 10° 146° (SE) 2,705 - -59.4°
Sets 23:14:26 0° 135° (SE) 4,070 - -59.9°
